Location: Belfast
(54.5830°N, 5.9330°W)
Time: 12:58:55
(UTC+00:00)

ISS - Pass Details

Date: 10 December 2017
Orbit: 402 x 406 km, 51.6° (Epoch: 16 December)

Event Time Altitude Azimuth Distance (km) Brightness Sun altitude
Rises 19:35:14 0° 275° (W) 2,332 1.2 -29.8°
Reaches altitude 10° 19:37:50 10° 254° (WSW) 1,468 -0.2 -30.2°
Enters shadow 19:38:14 12° 248° (WSW) 1,366 -0.4 -30.3°
